Tracking 20369 objects as of 18-Feb-2020
HD Live streaming from Space Station
objects crossing your sky now

COSMOS 2148

Track COSMOS 2148 now!
10-day predictions
COSMOS 2148 is classified as:


NORAD ID: 21304
Int'l Code: 1991-033F
Perigee: 1,388.1 km
Apogee: 1,423.4 km
Inclination: 82.6 °
Period: 113.8 minutes
Semi major axis: 7776 km
RCS: 1.1839 m2 (large)
Launch date: May 16, 1991
Source: Commonwealth of Independent States (former USSR) (CIS)
Launch site: PLESETSK MISSILE AND SPACE COMPLEX (PKMTR)
aabbcc
Your satellite tracking list
Your tracking list is empty




NASA's NSSDC Master Catalog

Two Line Element Set (TLE):
1 21304U 91033F   20048.83660653  .00000007  00000-0 -22416-4 0  9994
2 21304  82.5753 315.8599 0022667 181.8376 289.5770 12.65912698328908
Source of the keplerian elements: AFSPC